User: anonymous   Login
Location: Fort Hays State University
(38.8712°N, 99.3432°W)
Time: 13:41:57
(UTC-05:00)
Language:

Cosmos 2279 Rocket - Orbit

View from above orbital plane
View from above orbital plane
View from above satellite
View from above satellite

Ground track
Ground track

The orbit data is extracted from the following two-line orbital elements,

1 23093U 94024B   18140.77833574 +.00000047 +00000-0 +31441-4 0  9992
2 23093 082.9489 223.3855 0011306 133.4624 226.7476 13.77760136677679
Epoch (UTC): 20 May 2018 18:40:48
Eccentricity: 0.0011306
inclination: 82.9489°
perigee height: 963 km
apogee height: 980 km
right ascension of ascending node: 223.3855°
argument of perigee: 133.4624°
revolutions per day: 13.77760136
mean anomaly at epoch: 226.7476°
orbit number at epoch: 67767

The dashed part of the orbit path shows where the satellite is in the earth's shadow,  

DLR